This is the latest recevied weather packets stored in our database for station/object E24MSQ-13. If no packets are shown the sender has not sent any weather packets the latest 10 day(s).
| Time | Temp. | Humidity | Pressure | Rain* | Wind** | Luminosity | Snow |
|---|---|---|---|---|---|---|---|
| 1777934675 | 26.67° C | 82% | 1010 hPa | - | - | 0 W/m² | - |
| 1777933749 | 26.67° C | 82% | 1010 hPa | - | - | 0 W/m² | - |
| 1777932824 | 26.67° C | 83% | 1010 hPa | - | - | 0 W/m² | - |
| 1777931899 | 26.11° C | 83% | 1010 hPa | - | - | 0 W/m² | - |
| 1777930974 | 26.11° C | 84% | 1010 hPa | - | - | 0 W/m² | - |
| 1777930050 | 26.11° C | 84% | 1010 hPa | - | - | 0 W/m² | - |
| 1777929126 | 26.67° C | 82% | 1010 hPa | - | - | 0 W/m² | - |
| 1777928201 | 26.11° C | 84% | 1010 hPa | - | - | 0 W/m² | - |
| 1777927276 | 26.67° C | 82% | 1010 hPa | - | - | 0 W/m² | - |
| 1777926351 | 26.67° C | 82% | 1010 hPa | - | - | 0 W/m² | - |
| 1777925427 | 26.67° C | 83% | 1010 hPa | - | - | 0 W/m² | - |
| 1777924502 | 26.67° C | 82% | 1010 hPa | - | - | 0 W/m² | - |
| 1777923578 | 27.22° C | 81% | 1010 hPa | - | - | 0 W/m² | - |
| 1777922654 | 27.22° C | 82% | 1010 hPa | - | - | 0 W/m² | - |
| 1777921729 | 27.22° C | 82% | 1010 hPa | - | - | 0 W/m² | - |
| 1777920805 | 27.22° C | 83% | 1010 hPa | - | - | 0 W/m² | - |
| 1777919880 | 26.67° C | 83% | 1010 hPa | - | - | 0 W/m² | - |
| 1777918956 | 26.67° C | 81% | 1011 hPa | - | - | 0 W/m² | - |
| 1777918032 | 27.22° C | 83% | 1011 hPa | - | - | 0 W/m² | - |
| 1777917107 | 26.67° C | 83% | 1011 hPa | - | - | 0 W/m² | - |
| 1777916183 | 27.22° C | 82% | 1012 hPa | - | - | 0 W/m² | - |
| 1777915258 | 26.67° C | 83% | 1013 hPa | - | - | 0 W/m² | - |
| 1777914334 | 27.78° C | 80% | 1013 hPa | - | - | 0 W/m² | - |
| 1777913410 | 28.33° C | 80% | 1014 hPa | - | - | 0 W/m² | - |
| 1777912485 | 28.33° C | 78% | 1013 hPa | - | - | 0 W/m² | - |
* Rain since midnight (hover to see other rain measurements)
** Current wind speed in m/s (hover to see current wind gust speed)